This is the latest recevied weather packets stored in our database for station/object CX2SA-13. If no packets are shown the sender has not sent any weather packets the latest 10 day(s).
| Time | Temp. | Humidity | Pressure | Rain* | Wind** | Luminosity | Snow |
|---|---|---|---|---|---|---|---|
| 1777521585 | 13.89° C | 93% | 1012.8 hPa | 0 mm | - | - | - |
| 1777520684 | 13.89° C | 93% | 1012.8 hPa | 0 mm | - | - | - |
| 1777519785 | 14.44° C | 91% | 1012.8 hPa | 0 mm | - | - | - |
| 1777518885 | 14.44° C | 89% | 1012.8 hPa | 0 mm | - | - | - |
| 1777517984 | 15° C | 89% | 1012.8 hPa | 0 mm | - | - | - |
| 1777517085 | 15° C | 90% | 1012.8 hPa | 0 mm | - | - | - |
| 1777516185 | 15° C | 89% | 1012.5 hPa | 0 mm | - | - | - |
| 1777515284 | 15° C | 89% | 1012.5 hPa | 0 mm | - | - | - |
| 1777514384 | 15° C | 90% | 1012.1 hPa | 0 mm | - | - | - |
| 1777513485 | 15° C | 90% | 1012.1 hPa | 0 mm | - | - | - |
| 1777512584 | 15° C | 90% | 1012.1 hPa | 0 mm | - | - | - |
| 1777511684 | 15° C | 88% | 1012.1 hPa | 0 mm | - | - | - |
| 1777510785 | 15.56° C | 88% | 1011.8 hPa | 0 mm | - | - | - |
| 1777509886 | 15.56° C | 87% | 1012.1 hPa | 0 mm | - | - | - |
| 1777508984 | 15.56° C | 84% | 1011.8 hPa | 0 mm | - | - | - |
| 1777508085 | 16.11° C | 85% | 1011.5 hPa | 0 mm | - | - | - |
| 1777507184 | 16.67° C | 80% | 1011.5 hPa | 0 mm | - | - | - |
| 1777506285 | 17.22° C | 80% | 1011.5 hPa | 0 mm | - | - | - |
| 1777505385 | 17.78° C | 76% | 1011.5 hPa | 0 mm | - | - | - |
| 1777504484 | 18.33° C | 75% | 1011.5 hPa | 0 mm | - | - | - |
| 1777503585 | 18.33° C | 74% | 1011.1 hPa | 0 mm | - | - | - |
| 1777502685 | 18.89° C | 70% | 1011.1 hPa | 0 mm | - | - | - |
| 1777501784 | 19.44° C | 68% | 1011.1 hPa | 0 mm | - | - | - |
| 1777500885 | 19.44° C | 65% | 1011.1 hPa | 0 mm | - | - | - |
| 1777499985 | 20° C | 63% | 1010.8 hPa | 0 mm | - | - | - |
* Rain since midnight (hover to see other rain measurements)
** Current wind speed in m/s (hover to see current wind gust speed)